EDW2M LSZH-KLAS

Flight info

Callsign EDW2M
Flight time N/A
Altitude 32000
Route VEBIT T10 TORPA DCT REKLA DCT RLP DCT ROTSI DCT KOTUN DCT AMAXA DCT VESAN DCT RATUK DCT SOVAT L613 SANDY DCT OKSAW DCT TEWXI/N0474F340 DCT LIPGO DCT RESNO/M083F360 DCT 56N020W 57N030W 57N040W 56N050W DCT JANJO/N0471F360 DCT DENSO/N0464F380 DCT AGLOL DCT MERNU DCT XEXUL DCT BLUOX/N0476F400 DCT RAP J158 DDY J107 BERYL/N0482F390 DCT STEWW CHOWW4
Aircraft A343/H-SDE2E3FGHIJ4J5M1RWXY/LB1D1

Departure

Time 2026-04-25 23:30
Airport Zürich Airport (LSZH)

Arrival

Time N/A
Airport Harry Reid International Airport (KLAS)
Time Latitude Longitude Altitude Speed Heading
2026-04-25 22:38 47.46069 8.55242 1399 ft 0 kts
2026-04-25 23:15 47.46050 8.55239 1400 ft 4 kts
2026-04-25 23:16 47.46023 8.55234 1404 ft 4 kts
2026-04-25 23:16 47.46001 8.55231 1407 ft 4 kts 20°
2026-04-25 23:16 47.45986 8.55210 1409 ft 4 kts 88°
2026-04-25 23:16 47.45988 8.55173 1409 ft 4 kts 96°
2026-04-25 23:17 47.45990 8.55153 1408 ft 0 kts 96°
2026-04-25 23:17 47.45991 8.55150 1408 ft 0 kts 96°
2026-04-25 23:17 47.45992 8.55147 1408 ft 0 kts 96°
2026-04-25 23:17 47.45992 8.55145 1408 ft 0 kts 96°
2026-04-25 23:23 47.45990 8.55172 1409 ft 5 kts 97°
2026-04-25 23:23 47.45983 8.55251 1407 ft 10 kts 97°
2026-04-25 23:23 47.45973 8.55376 1409 ft 14 kts 95°
2026-04-25 23:23 47.45964 8.55522 1412 ft 13 kts 96°
2026-04-25 23:24 47.45956 8.55643 1406 ft 11 kts 96°
2026-04-25 23:24 47.45949 8.55739 1415 ft 8 kts 96°
2026-04-25 23:24 47.45942 8.55829 1408 ft 12 kts 96°
2026-04-25 23:24 47.45932 8.55984 1416 ft 17 kts 95°
2026-04-25 23:25 47.45920 8.56153 1421 ft 12 kts 96°
2026-04-25 23:25 47.45916 8.56244 1416 ft 7 kts 84°
2026-04-25 23:25 47.45935 8.56289 1423 ft 4 kts 42°
2026-04-25 23:25 47.45966 8.56310 1422 ft 7 kts 20°
2026-04-25 23:26 47.46001 8.56320 1419 ft 0 kts
2026-04-25 23:27 47.46015 8.56323 1419 ft 6 kts
2026-04-25 23:27 47.46093 8.56337 1415 ft 15 kts
2026-04-25 23:27 47.46175 8.56344 1416 ft 10 kts 354°
2026-04-25 23:27 47.46238 8.56296 1419 ft 11 kts 321°
2026-04-25 23:28 47.46256 8.56271 1418 ft 0 kts 317°
2026-04-25 23:29 47.46257 8.56270 1418 ft 1 kts 317°
2026-04-25 23:29 47.46307 8.56203 1416 ft 25 kts 317°
2026-04-25 23:29 47.46582 8.55827 1409 ft 82 kts 317°
2026-04-25 23:30 47.47132 8.55078 1401 ft 131 kts 317°
2026-04-25 23:30 47.47903 8.54021 1414 ft 170 kts 317°
2026-04-25 23:30 47.48820 8.52783 1817 ft 175 kts 318°
2026-04-25 23:30 47.49713 8.51604 2401 ft 176 kts 319°
2026-04-25 23:31 47.50644 8.50316 2730 ft 194 kts 314°
2026-04-25 23:31 47.51389 8.48542 2973 ft 213 kts 292°
2026-04-25 23:31 47.51689 8.46315 3267 ft 232 kts 276°
2026-04-25 23:31 47.51766 8.43814 3530 ft 254 kts 273°
2026-04-25 23:32 47.51638 8.41136 3974 ft 268 kts 255°
2026-04-25 23:32 47.50664 8.38801 4575 ft 273 kts 220°
2026-04-25 23:32 47.48986 8.37549 4919 ft 273 kts 194°
2026-04-25 23:32 47.47113 8.36986 5022 ft 276 kts 189°
2026-04-25 23:33 47.45221 8.36486 5312 ft 277 kts 191°
2026-04-25 23:33 47.43320 8.35943 5878 ft 279 kts 192°
2026-04-25 23:33 47.41418 8.35363 6552 ft 280 kts 193°
2026-04-25 23:33 47.39597 8.34381 7200 ft 280 kts 213°
2026-04-25 23:34 47.38199 8.32419 7819 ft 280 kts 237°
2026-04-25 23:34 47.37225 8.29922 8440 ft 282 kts 243°
2026-04-25 23:34 47.36326 8.27340 9083 ft 284 kts 244°
2026-04-25 23:34 47.35419 8.24734 9693 ft 287 kts 243°
2026-04-25 23:35 47.34496 8.22109 10273 ft 290 kts 243°
2026-04-25 23:35 47.33543 8.19409 10567 ft 304 kts 243°
2026-04-25 23:35 47.32543 8.16585 10779 ft 319 kts 243°
2026-04-25 23:35 47.31492 8.13626 10986 ft 333 kts 243°
2026-04-25 23:36 47.30397 8.10532 11191 ft 347 kts 243°
2026-04-25 23:36 47.29646 8.08419 11329 ft 356 kts 243°
2026-04-25 23:36 47.28086 8.03981 11657 ft 372 kts 246°
2026-04-25 23:36 47.27275 8.00353 12053 ft 376 kts 262°
2026-04-25 23:37 47.27174 7.96506 12556 ft 378 kts 274°
2026-04-25 23:37 47.27401 7.92640 13084 ft 380 kts 278°
2026-04-25 23:37 47.27777 7.88771 13617 ft 383 kts 280°
2026-04-25 23:37 47.28210 7.84882 14124 ft 387 kts 281°
2026-04-25 23:38 47.28650 7.80964 14616 ft 389 kts 280°
2026-04-25 23:38 47.29076 7.77012 15103 ft 392 kts 280°
2026-04-25 23:38 47.29484 7.73033 15608 ft 394 kts 279°
2026-04-25 23:38 47.29876 7.69021 16089 ft 397 kts 279°
2026-04-25 23:39 47.30282 7.64984 16569 ft 399 kts 282°
2026-04-25 23:39 47.30938 7.61008 17056 ft 401 kts 287°
2026-04-25 23:39 47.31696 7.57101 17521 ft 403 kts 288°
2026-04-25 23:39 47.32525 7.53147 17993 ft 405 kts 289°
2026-04-25 23:40 47.33389 7.49177 18483 ft 408 kts 289°
2026-04-25 23:40 47.34269 7.45188 18891 ft 410 kts 289°
2026-04-25 23:40 47.35155 7.41171 19286 ft 413 kts 289°
2026-04-25 23:40 47.36040 7.37129 19697 ft 416 kts 288°
2026-04-25 23:41 47.36925 7.33060 20132 ft 417 kts 288°
2026-04-25 23:41 47.37808 7.28974 20542 ft 419 kts 288°
2026-04-25 23:41 47.38692 7.24860 20936 ft 422 kts 288°
2026-04-25 23:41 47.39580 7.20721 21328 ft 424 kts 288°
2026-04-25 23:42 47.40442 7.16541 21718 ft 427 kts 285°
2026-04-25 23:42 47.41157 7.12278 22126 ft 429 kts 284°
2026-04-25 23:42 47.41830 7.07978 22499 ft 431 kts 283°
2026-04-25 23:42 47.42479 7.03641 22836 ft 434 kts 282°
2026-04-25 23:43 47.43117 6.99268 23188 ft 437 kts 282°
2026-04-25 23:43 47.43751 6.94875 23552 ft 439 kts 282°
2026-04-25 23:43 47.44389 6.90454 23867 ft 441 kts 282°
2026-04-25 23:43 47.45030 6.86013 24160 ft 443 kts 282°
2026-04-25 23:44 47.45674 6.81551 24452 ft 445 kts 282°
2026-04-25 23:44 47.46320 6.77080 24748 ft 446 kts 282°
2026-04-25 23:44 47.46969 6.72580 25036 ft 448 kts 282°
2026-04-25 23:44 47.47610 6.68064 25313 ft 450 kts 281°
2026-04-25 23:45 47.48071 6.63482 25572 ft 452 kts 277°
2026-04-25 23:45 47.48455 6.58860 25842 ft 454 kts 276°
2026-04-25 23:45 47.48806 6.54222 26113 ft 455 kts 276°
2026-04-25 23:45 47.49140 6.49559 26367 ft 457 kts 276°
2026-04-25 23:46 47.49467 6.44880 26629 ft 458 kts 276°
2026-04-25 23:46 47.49792 6.40190 26898 ft 460 kts 276°
2026-04-25 23:46 47.50118 6.35476 27150 ft 461 kts 276°
2026-04-25 23:46 47.50446 6.30748 27393 ft 463 kts 276°
2026-04-25 23:47 47.50775 6.26005 27649 ft 464 kts 276°
2026-04-25 23:47 47.51104 6.21248 27918 ft 465 kts 275°
2026-04-25 23:47 47.51429 6.16540 28125 ft 467 kts 275°
2026-04-25 23:47 47.51650 6.13312 28271 ft 468 kts 275°
2026-04-25 23:48 47.52083 6.06954 28563 ft 470 kts 275°
2026-04-25 23:48 47.52409 6.02141 28795 ft 471 kts 275°
2026-04-25 23:48 47.52732 5.97320 29062 ft 472 kts 275°
2026-04-25 23:48 47.53203 5.92523 29365 ft 471 kts 282°
2026-04-25 23:49 47.54085 5.87857 29675 ft 470 kts 289°
2026-04-25 23:49 47.55421 5.83446 29999 ft 470 kts 298°
2026-04-25 23:49 47.57211 5.79391 30256 ft 472 kts 307°
2026-04-25 23:49 47.59322 5.75664 30497 ft 472 kts 310°
2026-04-25 23:50 47.61516 5.72045 30758 ft 471 kts 311°
2026-04-25 23:50 47.63736 5.68489 31055 ft 470 kts 311°
2026-04-25 23:50 47.65966 5.64949 31311 ft 469 kts 311°
2026-04-25 23:50 47.67437 5.62610 31472 ft 468 kts 311°
2026-04-25 23:51 47.69653 5.59071 31708 ft 467 kts 311°
2026-04-25 23:51 47.71856 5.55529 31954 ft 466 kts 311°
2026-04-25 23:51 47.74045 5.51991 32135 ft 466 kts 310°
2026-04-25 23:52 47.78441 5.44843 32168 ft 468 kts 310°
2026-04-25 23:52 47.82820 5.37698 32167 ft 467 kts 310°
2026-04-25 23:53 47.87192 5.30544 32191 ft 467 kts 310°
2026-04-25 23:53 47.91561 5.23383 32175 ft 466 kts 310°
2026-04-25 23:54 47.95920 5.16224 32180 ft 466 kts 310°
2026-04-25 23:54 48.00265 5.09054 32186 ft 465 kts 310°
2026-04-25 23:55 48.04609 5.01868 32184 ft 467 kts 310°
2026-04-25 23:55 48.08958 4.94657 32180 ft 467 kts 310°
2026-04-25 23:56 48.13302 4.87436 32187 ft 467 kts 310°
2026-04-25 23:56 48.17629 4.80226 32184 ft 464 kts 310°
2026-04-25 23:57 48.21936 4.73027 32196 ft 464 kts 309°
2026-04-25 23:57 48.26237 4.65818 32191 ft 463 kts 309°
2026-04-25 23:58 48.30536 4.58603 32196 ft 464 kts 309°
2026-04-25 23:58 48.34824 4.51375 32195 ft 463 kts 309°
2026-04-25 23:59 48.39096 4.44150 32201 ft 461 kts 309°
2026-04-25 23:59 48.43348 4.36942 32201 ft 460 kts 309°
2026-04-26 00:00 48.47594 4.29728 32207 ft 460 kts 309°
2026-04-26 00:00 48.51798 4.22565 32211 ft 459 kts 309°
2026-04-26 00:01 48.56027 4.15341 32212 ft 459 kts 309°
2026-04-26 00:01 48.60246 4.08113 32216 ft 459 kts 309°
2026-04-26 00:02 48.64457 4.00881 32207 ft 458 kts 309°
2026-04-26 00:02 48.68661 3.93639 32210 ft 458 kts 309°
2026-04-26 00:03 48.73078 3.86695 32211 ft 460 kts 318°
2026-04-26 00:03 48.78179 3.80791 32213 ft 462 kts 321°
2026-04-26 00:04 48.83429 3.75048 32213 ft 462 kts 322°
2026-04-26 00:04 48.88619 3.69408 32212 ft 462 kts 322°
2026-04-26 00:05 48.93833 3.63705 32216 ft 462 kts 322°
2026-04-26 00:05 48.99038 3.57976 32218 ft 462 kts 321°
2026-04-26 00:06 49.04238 3.52232 32223 ft 462 kts 322°
2026-04-26 00:06 49.09431 3.46480 32221 ft 460 kts 323°
2026-04-26 00:07 49.14603 3.40739 32221 ft 460 kts 323°
2026-04-26 00:07 49.19774 3.34984 32221 ft 460 kts 322°
2026-04-26 00:08 49.24941 3.29218 32222 ft 460 kts 322°
2026-04-26 00:08 49.30101 3.23444 32226 ft 459 kts 323°
2026-04-26 00:09 49.35245 3.17673 32230 ft 458 kts 323°
2026-04-26 00:09 49.40390 3.11885 32183 ft 459 kts 322°
2026-04-26 00:10 49.45526 3.06092 32226 ft 458 kts 322°
2026-04-26 00:10 49.50654 3.00293 32215 ft 458 kts 322°
2026-04-26 00:11 49.55785 2.94475 32230 ft 458 kts 322°
2026-04-26 00:11 49.60911 2.88647 32235 ft 458 kts 322°
2026-04-26 00:12 49.66037 2.82803 32232 ft 458 kts 322°
2026-04-26 00:12 49.71156 2.76952 32234 ft 458 kts 322°
2026-04-26 00:13 49.76272 2.71088 32234 ft 458 kts 322°
2026-04-26 00:13 49.81403 2.65277 32241 ft 456 kts 323°
2026-04-26 00:14 49.86536 2.59613 32224 ft 455 kts 323°
2026-04-26 00:14 49.91694 2.53914 32244 ft 455 kts 323°
2026-04-26 00:15 49.96840 2.48187 32237 ft 455 kts 323°
2026-04-26 00:15 50.02006 2.42408 32235 ft 461 kts 323°
2026-04-26 00:16 50.07260 2.36513 32241 ft 469 kts 323°
2026-04-26 00:16 50.12544 2.30571 32243 ft 467 kts 323°
2026-04-26 00:17 50.17804 2.24639 32251 ft 465 kts 323°
2026-04-26 00:17 50.23038 2.18727 32252 ft 464 kts 323°
2026-04-26 00:18 50.28264 2.12810 32249 ft 464 kts 323°
2026-04-26 00:18 50.33484 2.06878 32254 ft 464 kts 323°
2026-04-26 00:19 50.38690 2.00906 32248 ft 464 kts 321°
2026-04-26 00:19 50.43601 1.94357 32256 ft 464 kts 317°
2026-04-26 00:20 50.48385 1.87567 32259 ft 464 kts 317°
2026-04-26 00:20 50.53207 1.80827 32263 ft 463 kts 318°
2026-04-26 00:21 50.58038 1.74172 32265 ft 461 kts 318°
2026-04-26 00:21 50.62892 1.67503 32254 ft 466 kts 318°
2026-04-26 00:22 50.67780 1.60774 32257 ft 467 kts 318°
2026-04-26 00:22 50.72660 1.54019 32259 ft 467 kts 318°
2026-04-26 00:23 50.77528 1.47241 32257 ft 467 kts 318°
2026-04-26 00:23 50.82401 1.40454 32252 ft 467 kts 318°
2026-04-26 00:24 50.87228 1.33712 32273 ft 465 kts 318°
2026-04-26 00:24 50.92077 1.26923 32265 ft 465 kts 318°
2026-04-26 00:25 50.96924 1.20120 32266 ft 465 kts 318°
2026-04-26 00:25 51.01766 1.13305 32266 ft 465 kts 317°
2026-04-26 00:26 51.06061 1.05683 32266 ft 461 kts 303°
2026-04-26 00:26 51.08897 0.96759 32272 ft 448 kts 293°
2026-04-26 00:27 51.11212 0.87553 32269 ft 448 kts 292°
2026-04-26 00:27 51.13443 0.78305 32268 ft 447 kts 292°
2026-04-26 00:28 51.15675 0.69061 32266 ft 447 kts 292°
2026-04-26 00:28 51.17913 0.59820 32266 ft 447 kts 292°
2026-04-26 00:29 51.20146 0.50564 32265 ft 447 kts 292°
2026-04-26 00:29 51.22373 0.41308 32265 ft 447 kts 292°
2026-04-26 00:30 51.24594 0.32044 32265 ft 447 kts 292°
2026-04-26 00:30 51.26809 0.22773 32266 ft 447 kts 291°
2026-04-26 00:31 51.29016 0.13492 32265 ft 447 kts 291°
2026-04-26 00:31 51.31214 0.04207 32265 ft 447 kts 291°
2026-04-26 00:32 51.33407 -0.05092 32278 ft 447 kts 291°
2026-04-26 00:32 51.36688 -0.19086 32265 ft 448 kts 291°
2026-04-26 00:33 51.38864 -0.28415 32264 ft 447 kts 291°
2026-04-26 00:33 51.41032 -0.37755 32265 ft 447 kts 291°
2026-04-26 00:34 51.43192 -0.47097 32264 ft 447 kts 291°
2026-04-26 00:34 51.45347 -0.56460 32266 ft 448 kts 290°
2026-04-26 00:35 51.47131 -0.64244 32265 ft 447 kts 290°
2026-04-26 00:35 51.49273 -0.73624 32264 ft 447 kts 290°
2026-04-26 00:36 51.51432 -0.83123 32260 ft 447 kts 290°
2026-04-26 00:36 51.53517 -0.92336 32259 ft 447 kts 290°
2026-04-26 00:37 51.55637 -1.01741 32272 ft 448 kts 290°
2026-04-26 00:37 51.57750 -1.11161 32265 ft 448 kts 289°
2026-04-26 00:38 51.59857 -1.20599 32265 ft 449 kts 289°
2026-04-26 00:38 51.61958 -1.30052 32265 ft 449 kts 289°
2026-04-26 00:39 51.64052 -1.39516 32262 ft 449 kts 289°
2026-04-26 00:39 51.66137 -1.48978 32262 ft 449 kts 289°
2026-04-26 00:40 51.68216 -1.58463 32277 ft 449 kts 289°
2026-04-26 00:40 51.70331 -1.67860 32270 ft 449 kts 292°
2026-04-26 00:41 51.73033 -1.77022 32257 ft 450 kts 295°